Volver al catálogo

FENGYUN 1C DEB

ActivoSSO
NORAD 30144·DEBRIS·🇨🇳 China

Lanzado May 10, 1999 desde Taiyuan Satellite Launch Center

Loading…

Próximos Pases (próximas 24 horas)

TLE

ActualizadoSource: Space-Track

Época: Sep 14, 2026, 11:01 UTC

1 30144U 99025SZ  26257.45949428  .00000280  00000-0  23757-3 0  9991
2 30144  99.0290 247.8239 0124734 259.2234 254.9676 13.92137487996767

Sigue FENGYUN 1C DEB en tiempo real con AllMySat

Download on the App Store